星链-35977(STARLINK-35977)

导读

STARLINK-35977是美国SpaceX公司于2025年11月22日发射的星链(Starlink)低轨互联网卫星,属于全球星链星座组网的组成部分。星链项目旨在为全球尤其是偏远无基础设施覆盖区域提供高速低时延宽带互联网服务,该卫星可支持手机直连等业务,通过激光星间链路与星座中其他卫星协同,助力实现全球全域连续网络覆盖。

Basic Information
目录编号:
66604
目录名称:
STARLINK-35977
国际标识:
2025-270S
轨道中心:
EARTH
卫星名称:
星链-35977
卫星全名:
星链-35977(STARLINK-35977)
卫星状态:
在轨 (已飞行286 天)
发射日期:
2025-11-22 UTC
国别 :
美国 (US)
星等 :
--
Orbit Information
数据来源 国际轨道数据
星历时间: 2026-09-04T08:27:27+0800
9小时前
查看轨道信息
半长轴: 6861.117km
偏心率: 0.0001797
轨道倾角: 43.001°
近地点辐角 266.246°
升交点赤经 128.668°
平近点角 93.819°
近地点: 481.747km
远地点: 484.213km
周期: 94.265分钟
每日圈数: 15.276031
Detailed Information
固有亮度:
5
最大亮度:
2.5
卫星平台:
Starlink V1.0
覆盖范围:
全球
运营商:
太空探索技术公司
运营商所在国:
美国
制造商(研发单位):
太空探索技术公司
制造商所在国:
美国
使用方式:
暂无
Satellite Introduction
Starlink 计划是 SpaceX 推出的全球卫星互联网项目,通过发射低轨道卫星,为全球尤其是偏远地区提供高速、低延迟的互联网服务。自 2019 年起,Starlink 已部署数千颗卫星,旨在缩小全球数字鸿沟,推动互联网普及。该项目还为军事、航空等行业提供通信支持,带来广泛经济效益。
2D Orbit Map
3D Orbit Map
Orbit Altitude Analysis Chart
Orbit Inclination Analysis Chart
Orbit Comprehensive Analysis Chart
View Comprehensive Chart
Conjunction Data List
Event ID Objects TCA Miss Dist (km) Collision Risk Probability Collision Risk Index (CRI) Action
CDM_260905-032406-660406-686821
2026-09-05T
03:24:20+0000
0.208 km
中距离
5.704386E-4 高风险 0.9
CDM_260903-024206-357606-660421
2026-09-03T
02:42:46+0000
0.547 km
远距离
1.103752E-4 高风险 0.76
CDM_260906-144205-548406-660421
2026-09-06T
14:42:12+0000
0.595 km
远距离
7.856627E-5 中风险 0.73
CDM_260905-102806-660406-686821
2026-09-05T
10:28:02+0000
0.784 km
远距离
3.305261E-5 中风险 0.65
CDM_260905-062106-660406-782621
2026-09-05T
06:21:55+0000
1.077 km
极远距离
1.592055E-5 中风险 0.59
CDM_260905-044706-660406-782621
2026-09-05T
04:47:45+0000
1.339 km
极远距离
7.504095E-6 低风险 0.53
CDM_260903-041606-357606-660421
2026-09-03T
04:16:56+0000
1.848 km
极远距离
2.315273E-6 低风险 0.42
CDM_260904-033605-719406-660422
2026-09-04T
03:36:45+0000
2.831 km
极远距离
1.417137E-6 低风险 0.38
CDM_260905-015006-660406-686821
2026-09-05T
01:50:11+0000
2.411 km
极远距离
1.116594E-6 低风险 0.36
CDM_260906-161605-548406-660421
2026-09-06T
16:16:21+0000
2.502 km
极远距离
1.072959E-6 低风险 0.36